Regional Weather Roundup
Issued by NWS Columbia, SC

Home | Current Version | Previous Version | Text Only | Print | Product List | Glossary On
Versions: 1 2 3 4 5 6 7 8 9 10 11 12 13 14 15 16 17 18 19 20 21 22 23 24 25 26 27 28 29 30 31 32 33 34 35 36 37 38 39 40 41 42 43 44 45 46 47 48 49 50
000
ASUS42 KCAE 310510
RWRCAE
REGIONAL WEATHER ROUNDUP
NATIONAL WEATHER SERVICE COLUMBIA SC
100 AM EDT FRI JUL 31 2015

NOTE: "FAIR" INDICATES FEW OR NO CLOUDS BELOW 12,000 FEET WITH NO
SIGNIFICANT WEATHER AND/OR OBSTRUCTIONS TO VISIBILITY.

NOT ALL STATIONS ARE QUALITY CONTROLLED BY THE NATIONAL
WEATHER SERVICE. USE DATA WITH CAUTION...ESPECIALLY
DEWPOINT OBSERVATIONS.

SCZ001>056-GAZ040-063>065-077-310600-
...UPSTATE SOUTH CAROLINA...

CITY           SKY/WX    TMP DP  RH WIND       PRES   REMARKS
ANDERSON       MOCLDY    84  70  62 NE8       29.94F
SPARTANBURG      N/A     82  72  69 NE3       29.96R
CLEMSON        PTCLDY    84  72  67 N5        29.97S
GREENVILLE     CLEAR     82  68  62 N6        29.98S
GREENWOOD      CLOUDY    83  73  72 S3        29.94S
GREER          CLEAR     81  71  71 NE5       29.96S
ROCK HILL      MOCLDY    78  75  90 CALM      29.95F
CHESTER        LGT RAIN  81  75  83 CALM      29.96R
LAURENS        PTCLDY    81  79  94 N3        29.94F


...CENTRAL SOUTH CAROLINA...

CITY           SKY/WX    TMP DP  RH WIND       PRES   REMARKS
COLUMBIA APT   PTCLDY    82  73  74 S5        29.90F
COLUMBIA OWENS MOCLDY    79  75  87 CALM      29.92S
DARLINGTON     PTCLDY    81  72  74 CALM      29.92S
FLORENCE       MOCLDY    82  75  79 S3        29.90F
MCENTIRE ANGB  CLEAR     76  74  93 E3        29.92S
ORANGEBURG     CLOUDY    79  73  82 CALM      29.92F
SUMTER SHAW    CLOUDY    79  73  82 SW3       29.90S
NEWBERRY       PTCLDY    77  73  88 CALM      29.95S
AIKEN          FAIR      77  72  83 CALM      29.96S
BARNWELL       FAIR      79  79 100 CALM      29.93S
MANNING        FAIR      79  72  78 CALM      29.92S
CAMDEN         FAIR      77  77 100 SE6       29.92S
LANCASTER      LGT RAIN  79  75  89 W6        29.95R
WINNSBORO      CLEAR     81  73  78 CALM      29.93S


...EASTERN AND COASTAL SOUTH CAROLINA...

CITY           SKY/WX    TMP DP  RH WIND       PRES   REMARKS
MYRTLE BEACH   PTCLDY    82  72  69 CALM      29.92F
N MYRTLE BCH   PTCLDY    79  76  90 CALM      29.90F
CONWAY         FAIR      79  77  94 CALM      29.90F
MARION         MOCLDY    77  75  94 CALM      29.90F FOG
HARTSVILLE     FAIR      77  72  83 CALM      29.91S
FLORENCE       MOCLDY    82  75  79 S3        29.90F
DARLINGTON     PTCLDY    81  72  74 CALM      29.92S
CHARLESTON APT MOCLDY    81  73  76 SW6       29.92R
MOUNT PLEASANT   N/A     77  77 100 CALM      29.92S FOG
WALTERBORO     PTCLDY    81  77  89 SW5       29.93S
BEAUFORT       CLOUDY    83  75  77 S6        29.93S


...EASTERN GEORGIA...

CITY           SKY/WX    TMP DP  RH WIND       PRES   REMARKS
AUGUSTA BUSH F CLEAR     78  75  90 S6        29.91S
AUGUSTA DANIEL CLEAR     81  75  82 CALM      29.93S
THOMSON        CLEAR     79  78  95 CALM      29.97S
WASHINGTON     FAIR      81  81 100 SW3       29.93F
CLAXTON        FAIR      81  77  89 CALM      29.92F
SYLVANIA       MOCLDY    82  76  81 CALM      29.93F
STATESBORO     MOCLDY    79  79 100 CALM      29.93S
SAVANNAH       MOCLDY    80  75  84 SW5       29.93S


...SOUTHERN NORTH CAROLINA...

CITY           SKY/WX    TMP DP  RH WIND       PRES   REMARKS
CHARLOTTE      MOCLDY    80  71  74 NE5       29.96R
MONROE         CLOUDY    81  74  79 N12       29.94R THUNDER
WADESBORO      PTCLDY    80  73  76 CALM      29.91S
ROCKINGHAM     CLEAR     78  73  85 CALM      29.91F
RUTHERFORDTON  PTCLDY    81  67  63 CALM      29.99S
ASHEVILLE      CLEAR     75  64  68 N10       30.08R

$$


USA.gov is the U.S. government's official web portal to all federal, state and local government web resources and services.